Home   Weather   Charlotte   Past weeks
Flag for USA

Past Weather in Charlotte, North Carolina, USA — January 2018

Now
42 °F

Light rain. Fog.


Feels Like: 39 °F
Forecast: 56 / 42 °F
Wind: 5 mph from West

Location: Charlotte / Douglas International Airport

Current Time: Dec 14, 2019 at 2:45:13 am

Latest Report: Dec 14, 2019 at 2:03 am


Visibility: 1 mi

Pressure: 29.68 "Hg

Humidity: 96%

Dew Point: 41 °F

Location of CharlotteLocation

January 2018 Weather in Charlotte — Graph

°F

High & Low Weather Summary for January 2018

 TemperatureHumidityPressure
High68 °F (Jan 12, 11:52 am)100% (Jan 9, 5:52 am)30.70 "Hg (Jan 9, 5:52 am)
Low11 °F (Jan 2, 6:52 am)16% (Jan 2, 3:52 pm)29.59 "Hg (Jan 12, 8:52 pm)
Average40 °F60%30.25 "Hg
* Reported Jan 1 12:52 am — Jan 31 11:52 pm, Charlotte. Weather by CustomWeather, © 2019

Note: Actual official high and low records may vary slightly from our data, if they occured in-between our weather recording intervals... More about our weather records

Charlotte Weather History for January 1, 2018

Scroll right to see more
 ConditionsComfort  
Time TempWeatherWind HumidityBarometerVisibility
12:52 am
Mon, Jan 1
25 °FOvercast.12 mph30%30.37 "Hg10 mi
1:52 am25 °FOvercast.8 mph28%30.38 "Hg10 mi
2:52 am25 °FOvercast.8 mph25%30.39 "Hg10 mi
3:52 am24 °FOvercast.13 mph27%30.40 "Hg10 mi
4:52 am24 °FOvercast.12 mph27%30.41 "Hg10 mi
5:52 am22 °FPassing clouds.9 mph33%30.44 "Hg10 mi
6:52 am19 °FPassing clouds.10 mph41%30.47 "Hg10 mi
7:52 am19 °FScattered clouds.9 mph43%30.50 "Hg10 mi
8:52 am20 °FPartly sunny.10 mph45%30.52 "Hg10 mi
9:52 am23 °FPartly sunny.8 mph38%30.54 "Hg10 mi
10:52 am25 °FPartly sunny.12 mph33%30.55 "Hg10 mi
11:52 am27 °FPartly sunny.10 mph32%30.53 "Hg10 mi
12:52 pm27 °FPartly sunny.13 mph29%30.50 "Hg10 mi
1:52 pm29 °FScattered clouds.13 mph26%30.47 "Hg10 mi
2:52 pm28 °FScattered clouds.13 mph26%30.47 "Hg10 mi
3:52 pm29 °FPassing clouds.9 mph25%30.47 "Hg10 mi
4:52 pm28 °FPassing clouds.12 mph24%30.47 "Hg10 mi
5:52 pm24 °FPassing clouds.7 mph30%30.50 "Hg10 mi
6:52 pm23 °FPassing clouds.7 mph36%30.52 "Hg10 mi
7:52 pm23 °FPassing clouds.12 mph38%30.53 "Hg10 mi
8:52 pm22 °FPassing clouds.10 mph38%30.54 "Hg10 mi
9:52 pm19 °FPassing clouds.7 mph45%30.55 "Hg10 mi
10:52 pm18 °FPassing clouds.7 mph49%30.56 "Hg10 mi
11:52 pm17 °FPassing clouds.6 mph49%30.56 "Hg10 mi
Weather by CustomWeather, © 2019

See weather overview

Advertising